www.pogodaiklimat.ru

Архив погоды в Воркуте (Коми, Россия)

Время
(UTC), дата
09 18.02
12 18.02
15 18.02
18 18.02
21 18.02
00 19.02
03 19.02
06 19.02
09 19.02
12 19.02
15 19.02
18 19.02
21 19.02
00 20.02
03 20.02
06 20.02
09 20.02
12 20.02
15 20.02
18 20.02
21 20.02
00 21.02
03 21.02
06 21.02
09 21.02
12 21.02
15 21.02
18 21.02
21 21.02
00 22.02
03 22.02
06 22.02
09 22.02
12 22.02
15 22.02
18 22.02
21 22.02
00 23.02
03 23.02
06 23.02
09 23.02
12 23.02
15 23.02
18 23.02
21 23.02
00 24.02
03 24.02
06 24.02
09 24.02
12 24.02
15 24.02
18 24.02
21 24.02
00 25.02
03 25.02
06 25.02
Ветер
(напр.,м/с)
Видим. Явления Облачность Т
(С)
Тd
(С)
f
(%)
Тe
(С)
Тes
(С)
Комфортность P
(гПа)
Po
(гПа)
Тmin
(С)
Tmax
(С)
R
(мм)
R24
(мм)
S
(см)
Ю 15-20 {21} 5000 м метель 10/0 [As op] -11.2 -14.8 75 -24 -24 по сезону 1010.7 988.2
Ю 11-16 {21} 800 м сильная метель ?/? -11.8 -13.8 85 -23 -23 по сезону 1007.9 985.5
Ю 13-17 {18} 700 м сильная метель ?/? -12.8 -14.8 85 -25 -25 по сезону 1006.0 983.6 -10.2 2
Ю 11-16 {19} 2800 м метель {снег} 10/6 400 м [Sc As op] -13.5 -15.5 85 -25 -25 по сезону 1005.6 983.0
Ю 9-14 {16} 1200 м сильн. снег {метель} 10/8 150 м [Frnb As op] -12.7 -14.7 85 -23 -23 по сезону 1004.1 981.8
Ю 9-12 {16} 7000 м метель {снег} 10/8 330 м [Sc As op] -12.4 -15.1 80 -23 -23 по сезону 1002.6 980.3
Ю 9-12 {13} 9000 м метель 10/8 400 м [Sc As op] -12.0 -15.5 75 -23 -23 по сезону 1002.9 980.6 -13.8 1 11
ЮЗ 10-14 {14} 3400 м метель 10/6 420 м [Sc As op] -11.2 -14.0 80 -22 -22 по сезону 1002.6 980.3
ЮЗ 11-16 {17} 3200 м слаб. снег {пыльная буря} 10/10 330 м [Sc] -10.7 -12.7 100 -22 -22 по сезону 1002.4 980.3
ЮЗ 8-12 {17} 4100 м метель {снег, пыльная буря} 10/10 330 м [Sc] -11.2 -13.2 85 -21 -21 по сезону 1004.1 981.8
ЮЗ 8-12 {14} 3900 м слаб. снег {пыльная буря} 10/10 500 м [Sc] -10.8 -12.8 85 -21 -21 по сезону 1005.2 983.0 -10.4
ЮЗ 8-10 {14} 8000 м слаб. снег {пыльная буря} 10/10 300 м [Sc] -10.7 -12.0 90 -21 -21 по сезону 1005.7 983.5
ЮЗ 10-14 {14} 7000 м слаб. снег {пыльная буря} 10/10 270 м [Frnb] -9.2 -10.8 88 -20 -20 по сезону 1005.6 983.5
ЮЗ 11-16 {19} 700 м сильная метель {снег, пыльная буря} ?/? -8.6 -10.1 89 -19 -19 тепло 1005.7 983.6
ЮЗ 11-17 {19} 700 м сильная метель {пыльная буря} ?/? -8.4 -9.9 89 -19 -19 тепло 1005.0 982.9 -10.8 3 11
ЮЗ 11-17 {19} 800 м сильная метель {пыльная буря} ?/? -8.6 -10.5 86 -19 -19 тепло 1003.8 981.8
ЮЗ 11-16 {17} 6000 м метель {пыльная буря} 10/10 500 м [Sc] -7.6 -10.7 78 -18 -18 тепло 1003.5 981.5
ЮЗ 11-17 {18} 500 м сильная метель {снег, пыльная буря} ?/? -6.9 -9.4 82 -17 -17 тепло 1001.7 979.9
Ю 10-15 {19} 600 м сильная метель {пыльная буря} ?/? -7.3 -9.0 88 -18 -18 тепло 1001.7 979.7 -6.7 0.8
ЮЗ 12-16 {18} 700 м сильная метель {пыльная буря} ?/? -7.0 -8.7 88 -18 -18 тепло 1000.4 978.4
ЮЗ 12-16 {16} 800 м сильная метель {пыльная буря} ?/? -6.4 -8.0 88 -17 -17 тепло 1000.0 978.2
ЮЗ 12-16 {18} 800 м сильная метель {пыльная буря} ?/? -6.7 -8.3 88 -18 -18 тепло 1000.4 978.6
ЮЗ 8-13 {16} 1800 м сильн. снег {пыльная буря} 10/10 360 м [Sc] -7.0 -8.7 88 -16 -16 тепло 1002.0 980.2 -7.7 5 16
ЮЗ 8-10 {16} 10 км в посл. час ливневой снег 10/8 420 м [Cb cap Ac und] -7.1 -8.4 90 -16 -16 тепло 1004.7 982.8
З 5 {10} 10 км в посл. час ливневой снег 10/8 800 м [Cb cap Ac und] -7.6 -9.0 90 -15 -15 тепло 1008.6 986.5
ЮЗ 7 {11} 2000 м мгла {ливн. снег} 10/10 150 м [Cb cap] -10.3 -11.6 90 -20 -20 по сезону 1011.8 989.4
Ю 8-12 {13} 10 км позёмок {метель} 10/0 [As trans] -11.0 -13.0 85 -21 -21 по сезону 1012.3 989.9 -6.8 0.7
ЮЗ 8-12 {14} 10 км позёмок {снег, метель} 10/10 330 м [Sc] -8.3 -10.2 86 -18 -18 тепло 1012.6 990.4
ЮЗ 8-10 {12} 6000 м слаб. снег {метель} 10/10 420 м [Sc] -9.7 -11.8 85 -19 -19 тепло 1013.9 991.5
ЮЗ 8-11 {12} 10 км в посл. час снег {метель} 10/6 930 м [Sc Ac und] -11.1 -13.1 85 -21 -21 по сезону 1014.7 992.3
ЮЗ 8-12 {14} 2300 м снег {метель} 10/10 210 м [Frnb] -11.5 -13.5 85 -21 -21 по сезону 1015.9 993.3 -11.6 2 18
ЮЗ 8-13 {14} 1300 м сильн. снег {метель} 10/10 210 м [Frnb] -9.8 -11.9 85 -20 -20 тепло 1016.9 994.4
ЮЗ 8-13 {13} 9000 м метель {снег} 10/8 330 м [Cb cap Ac und] -8.9 -10.4 89 -18 -18 тепло 1017.6 995.3
ЮЗ 4 {13} 10 км слаб. снег {метель} 10/10 330 м [Sc] -9.2 -11.2 85 -16 -16 тепло 1018.3 996.0
Ю 4 10 км {снег} 10/10 360 м [Sc] -9.2 -11.7 82 -16 -16 тепло 1019.1 996.8 -8.5 0.3
Ю 2 10 км {снег} 4/0 [Ci fib] -13.7 -15.7 85 -18 -18 тепло 1019.7 996.9
ЮВ 4 10 км ясно -16.3 -18.2 85 -24 -24 по сезону 1019.6 996.6
Ю 6 8000 м слаб. ливневой снег 10/8 570 м [Cb cap Ac und] -12.2 -14.9 80 -21 -21 по сезону 1018.0 995.4
Ю 8-10 {10} 3400 м крупа {ливн. снег} 10/8 400 м [Cb cap Ac und] -9.7 -12.3 81 -19 -19 тепло 1017.0 994.5 -16.3 0.4 17
Ю 7-10 {11} 2100 м снег {ливн. снег} 10/10 270 м [Frnb] -8.0 -10.3 83 -17 -17 тепло 1016.3 994.0
Ю 7 {11} 6000 м слаб. снег 10/10 330 м [Sc] -7.6 -9.4 87 -16 -16 тепло 1015.7 993.4
Ю 7 {11} 2300 м снег 10/10 300 м [Sc] -7.7 -9.5 87 -17 -17 тепло 1015.6 993.3
Ю 6 {10} 6000 м слаб. снег 10/10 330 м [Sc] -8.4 -9.9 89 -17 -17 тепло 1016.2 993.9 -7.1 3
Ю 6 {10} 5000 м слаб. снег 10/10 360 м [Sc] -7.4 -9.1 88 -16 -16 тепло 1016.2 993.9
ЮЗ 8-10 {11} 10 км слаб. снег 10/10 270 м [Frnb] -7.6 -9.0 90 -17 -17 тепло 1016.1 993.8
ЮЗ 7-10 {11} 2800 м снег [диам. гололёда 0 мм] 10/10 210 м [St] -6.7 -7.9 91 -15 -15 тепло 1016.5 994.4
ЮЗ 7-10 {11} 2300 м дождь со снегом [диам. гололёда 0 мм] 10/10 240 м [St] -6.0 -7.1 92 -15 -15 тепло 1016.7 994.6 -8.4 0.9 18
ЮЗ 7 {11} 2100 м снег [диам. гололёда 4 мм] 10/10 270 м [Frnb] -5.6 -7.0 90 -14 -14 тепло 1017.2 995.1
ЮЗ 7-10 {11} 5000 м слаб. снег [диам. гололёда 4 мм] 10/10 120 м [Frnb] -4.8 -5.8 93 -13 -13 тепло 1017.1 995.1
ЮЗ 7-10 {11} 4500 м слаб. дождь со снегом [диам. гололёда 4 мм] 10/10 150 м [St] -4.4 -5.6 91 -13 -13 тепло 1018.0 996.0
ЮЗ 7-10 {10} 4200 м слаб. дождь со снегом [диам. гололёда 5 мм] 10/10 150 м [St] -5.0 -6.3 91 -13 -13 тепло 1018.3 996.3 -4.2 4
ЮЗ 8-11 {11} 8000 м слаб. снег [диам. гололёда 6 мм] 10/10 150 м [St] -5.1 -6.5 90 -14 -14 тепло 1018.5 996.5
ЮЗ 5 {11} 7000 м слаб. снег [диам. гололёда 6 мм] 10/10 150 м [St] -4.8 -5.8 93 -12 -12 тепло 1018.9 996.9
ЮЗ 7 {11} 2400 м снег [диам. гололёда 6 мм] 10/10 150 м [Frnb] -4.0 -5.2 91 -12 -12 тепло 1018.9 996.9
ЮЗ 7 {11} 2500 м снег [диам. гололёда 6 мм] 10/10 150 м [Frnb] -4.3 -5.5 91 -13 -13 тепло 1019.0 997.0 -5.4 0.6 19
ЮЗ 7-10 {11} 9000 м слаб. снег [диам. гололёда 6 мм] 10/10 180 м [Frnb] -4.4 -6.0 89 -13 -13 тепло 1019.1 997.1
Местоположение метеостанции Воркута (Коми, Россия): широта 67.48 долгота 63.97 высота над уровнем моря 172 м.
В архиве по умолчанию представлена погода в Воркуте за последнюю неделю. Архивные данные за месяц целиком и за предыдущие месяцы, начиная с января 2011 года, Вы можете получить, выбрав интересующий диапазон дат из раскрывающегося списка и нажав кнопку "Найти!".
*Определитесь, кто Вы:
Внимание! Время в таблицах - всемирное. Для получения местного времени необходимо прибавить поправку, которая равна 3 ч.
Некоторые строки с данными для отдельных станций могут быть выделены курсивом. Это означает, что фактические данные отсутствуют по различным причинам, а приведенные значения являются расчетными модельными данными для данного пункта наблюдений.
Смотрите также архив погоды в соседних городах и на ближайших метеорологических станциях:
Партнеры нашего сайта:      
Пояснения к столбцам:
  • Ветер - указаны скорость ветра в м/с - средняя за 10 мин, порывы в срок и между сроками (в фигурных скобках) и направление, откуда дует ветер: С - северный,
  • СВ - северо-восточный, В - восточный, ЮВ - юго-восточный, Ю - южный, ЮЗ - юго-западный, З - западный, СЗ - северо-западный.
  • Видимость - горизонтальная дальность видимости в метрах или километрах. При видимости от 1 до 10 км при отсутствии осадков обычно наблюдается дымка, при ухудшении видимости до 1 км и менее - туман. В сухую погоду видимость может ухудшаться дымом, пылью или мглою.
  • Явления - указаны атмосферные явления, наблюдавшиеся в срок или в последний час перед сроком; фигурными скобками обозначены явления, наблюдавшиеся между сроками (за 1-3 часа до срока); квадратными скобками обозначены град или гололедные отложения с указанием их диаметра в мм.
  • Облачность - указаны через наклонную черту общая и нижняя облачность в баллах и высота нижней границы облаков в метрах; квадратными скобками обозначены формы облаков: Ci - перистые, Cs - перисто-слоистые, Cc - перисто-кучевые, Ac - высококучевые, As - высокослоистые, Sc - слоисто-кучевые, Ns - слоисто-дождевые, Cu - кучевые, Cb - кучево-дождевые. Подробнее классификацию облаков см. в Атласе облаков (PDF).
  • T - Температура воздуха - температура, измеренная на высоте 2 м над землей.
  • Td - Температура точки росы - температура, при понижении до которой содержащийся в воздухе водяной пар достигнет насыщения.
  • f - Относительная влажность воздуха - влажноcть воздуха, измеренная на высоте 2 м над землей.
  • Te - Эффективная температура - температура, которую ощущает одетый по сезону человек в тени. Характеристика душности погоды. При расчете учитывается влияние влажности воздуха и скорости ветра на теплоощущения человека.
  • Tes - Эффективная температура на солнце - температура, которую ощущает человек, с поправкой на солнечный нагрев. Характеристика знойности погоды. Зависит от высоты солнца над горизонтом, облачности и скорости ветра. Ночью, в пасмурную погоду, а также при ветре 12 м/с и более поправка равна нулю.
  • P - Атмосферное давление - приведенное к уровню моря атмосферное давление.
  • Po - Атмосферное давление - измеренное на уровне метеостанции атмосферное давление.
  • Tmin - Минимальная температура - минимум температуры воздуха на высоте 2 м над землей.
  • Tmax - Максимальная температура - максимум температуры воздуха на высоте 2 м над землей.
  • R - Количество осадков - Количество выпавших осадков за период времени, мм. При наведении курсора мыши на число - период времени, за который выпало указанное количество осадков.
  • R24 - Количество осадков - Количество выпавших осадков за 24 часа, мм.
  • S - Снежный покров - Высота снежного покрова, см. При наведении курсора мыши на число - состояние снежного покрова и степень покрытия местности в баллах.